Regional Weather Roundup
Issued by NWS

Home | Current Version | Previous Version | Text Only | Print | Product List | Glossary On
Versions: 1 2 3 4 5 6 7 8 9 10 11 12 13 14 15 16 17 18 19 20 21 22 23 24 25 26 27 28 29 30 31 32 33 34 35 36 37 38 39 40 41 42 43 44 45 46 47 48 49
000
ASUS45 KSLC 020110
RWRUT

UTAH REGIONAL WEATHER ROUNDUP
NATIONAL WEATHER SERVICE SALT LAKE CITY UT
700 PM MDT WED APR 01 2015

UTZ001>011-023>025-020200-

NORTHERN UTAH

CITY           SKY/WX    TMP DP  RH WIND       PRES   REMARKS
BRIGHAM CITY   MOCLDY    50   9  19 SW8       30.02S
HILL AFB       PTCLDY    47   9  21 W3        30.02F
LOGAN          CLEAR     49  14  24 SW12      29.99F
OGDEN          PTCLDY    47   9  21 SW8       30.02F
PROVO AIRPORT  NOT AVBL
SALT LAKE CITY MOCLDY    50   3  14 N7        30.03F
VERNAL         CLOUDY    54   4  13 SW20G25   29.87F
WENDOVER       CLOUDY    48   9  20 CALM      30.01F
HEBER CITY     MOCLDY    45   9  23 SW10      29.99S
WEST JORDAN    CLEAR     46  10  23 NW10      30.03F

$$

UTZ012>022-026-027-020200-

SOUTHERN/CENTRAL UTAH

CITY           SKY/WX    TMP DP  RH WIND       PRES   REMARKS
BLANDING       CLEAR     63  15  15 W15       29.94S
BRYCE CANYON   MOCLDY    50  11  20 NW12G21   29.98S
CEDAR CITY     CLOUDY    56  12  17 NE3       29.91F
DELTA          MOCLDY    51  -3  10 N6        29.97F
HANKSVILLE     PTCLDY    64  12  13 N7        29.84F
MILFORD        MOCLDY    54  12  18 N13       29.93F
MOAB/CYNLANDS  CLEAR     62   4  10 NW13      29.82F
PRICE          PTCLDY    52   4  14 NW14      29.91F
ST GEORGE      MOCLDY    73  18  12 SW13      29.83F
KANAB          PTCLDY    63  10  13 W12       29.93S

$$

REGIONAL REPORTS     COLORADO/ARIZONA

CITY           SKY/WX    TMP DP  RH WIND       PRES   REMARKS
CRAIG, CO      PTCLDY    50  11  20 N10       29.88R
GRAND JUNCTION CLEAR     61   1   9 W15G25    29.82S
RIFLE          PTCLDY    60   2   9 W18       29.82R
MONTROSE       PTCLDY    63   9  12 W10       29.87R
CORTEZ         CLEAR     64  12  13 W15       29.88F
PAGE, AZ       PTCLDY    71  -2   5 W13       29.83S
GRAND CANYON   PTCLDY    61   2   9 W12G21    29.97S
KINGMAN        SUNNY     74   7   7 W13       29.86F
FLAGSTAFF      PTCLDY    59  21  23 W13G18    30.01S

$$

REGIONAL REPORTS    NEVADA/IDAHO/WYOMING

CITY           SKY/WX    TMP DP  RH WIND       PRES   REMARKS
LAS VEGAS, NV  MOSUNNY   80   7   6 SW15      29.73F
ELY            MOSUNNY   52  -1  11 N13       29.92F
ELKO           CLOUDY    48   1  14 W9        29.98F
POCATELLO, ID  PTCLDY    46   3  17 W22       30.01S
BURLEY         MOSUNNY   45   5  19 W16G23    30.04S
EVANSTON, WY   PTCLDY    38  -2  18 W20       30.00S WCI  28
ROCK SPRINGS   MOCLDY    42   3  19 W25G31    29.95S

$$



USA.gov is the U.S. government's official web portal to all federal, state and local government web resources and services.